User: anonymous   Login
Location: Unspecified
(0.0000°N, 0.0000°E)
Time: 05:41:54
(UTC+00:00)
Language:

WGS 9 (USA 275) - Orbit

View from above orbital plane
View from above orbital plane
View from above satellite
View from above satellite

Ground track
Ground track

The orbit data is extracted from the following two-line orbital elements,

1 42075U 17016A   18352.60010422  .00000090  00000-0  00000+0 0  9995
2 42075   0.0225 344.4050 0000370 222.4788 153.1143  1.00270105  6484
Epoch (UTC): 18 December 2018 14:24:09
Eccentricity: 0.0000370
inclination: 0.0225°
perigee height: 35785 km
apogee height: 35788 km
right ascension of ascending node: 344.4050°
argument of perigee: 222.4788°
revolutions per day: 1.00270105
mean anomaly at epoch: 153.1143°
orbit number at epoch: 648

The dashed part of the orbit path shows where the satellite is in the earth's shadow,  

DLR